Regional Weather Roundup
Issued by NWS

Home | Current Version | Previous Version | Text Only | Print | Product List | Glossary On
Versions: 1 2 3 4 5 6 7 8 9 10 11 12 13 14 15 16 17 18 19 20 21 22 23 24 25 26 27 28 29 30 31 32 33 34 35 36 37 38 39 40 41 42 43 44 45 46 47 48 49 50
000
ASUS43 KDTX 130501
RWRMI
MICHIGAN HOURLY REGIONAL WEATHER ROUNDUP
NATIONAL WEATHER SERVICE DETROIT/PONTIAC MI
100 AM EDT SUN JUL 13 2014

NOTE: "FAIR" INDICATES FEW OR NO CLOUDS BELOW 12,000 FEET WITH NO
SIGNIFICANT WEATHER AND/OR OBSTRUCTION TO VISIBILITY.

MIZ047>049-052>055-059>063-066>070-074>076-081>083-130600-
SOUTHEAST LOWER MICHIGAN

CITY           SKY/WX    TMP DP  RH WIND       PRES   REMARKS
ADRIAN         CLOUDY    75  67  76 SW15      29.94F
ALMA           LGT RAIN  72  68  89 S6        29.86S
ANN ARBOR      MOCLDY    75  65  70 SW10      29.92F
BAD AXE        LGT RAIN  70  68  93 S8        29.85F
CARO           CLOUDY    73  72  96 S6        29.85F
DETROIT CITY   MOCLDY    79  66  64 SW10      29.91F
DETROIT        CLOUDY    76  67  73 S13       29.92F
FLINT          CLOUDY    75  66  73 S8        29.87F
GROSSE ILE     CLOUDY    75  68  78 SW9       29.92S
HILLSDALE      CLOUDY    74  70  87 S12G18    29.94S
HOWELL         MOCLDY    73  67  80 S9        29.89F

CITY           SKY/WX    TMP DP  RH WIND       PRES   REMARKS
JACKSON        CLOUDY    74  67  78 S12       29.91F
LAMBERTVILLE   CLOUDY    77  66  69 SW8       29.95R
LANSING        CLOUDY    74  67  78 S15       29.87F
LAPEER         CLOUDY    71  68  88 S5        29.88F
MASON          CLOUDY    73  67  80 S7        29.89S
MONROE         CLOUDY    75  66  73 SW7       29.92S
PONTIAC        MOCLDY    73  67  81 S9        29.90F
PORT HOPE        N/A     71  67  87 VRB3      29.82F
PORT HURON     CLOUDY    72  70  94 S6        29.90F
TRI CITIES     CLOUDY    75  68  78 SW9       29.85F
TROY           MOCLDY    75  68  78 SW7       29.91F
SAGINAW HB     CLOUDY    73  70  88 SW10      29.84S
$$
MIZ043>046-050>051-056>058-064>065-071>073-077>080-130600-
SOUTHWEST LOWER MICHIGAN

CITY           SKY/WX    TMP DP  RH WIND       PRES   REMARKS
BATTLE CREEK   CLOUDY    74  69  85 S16       29.89F
BENTON HARBOR  CLOUDY    75  72  90 SW12      29.86S
BIG RAPIDS     RAIN      71  71 100 S7        29.84F
COLDWATER      CLOUDY    76  69  80 S8        29.93S
FREMONT        RAIN      70  70 100 S7        29.83F
HOLLAND        LGT RAIN  76  73  91 S15       29.83F
GRAND RAPIDS   TSTM      74  70  87 SW14G25   29.82F FOG
IONIA          LGT RAIN  73  68  83 S14G21    29.85S
KALAMAZOO      CLOUDY    74  70  87 S13       29.88F
LUDINGTON      HVY RAIN  64  64  97 CALM      29.84F
MARSHALL       CLOUDY    73  69  86 S9G16     29.90S
MOUNT PLEASANT CLOUDY    72  70  94 S7        29.84S
MUSKEGON       TSTM      72  70  93 S10       29.82F FOG
SOUTH HAVEN    LGT RAIN  75  74  99 S8        29.85S
$$
MIZ016>042-130600-
NORTHERN LOWER MICHIGAN

CITY           SKY/WX    TMP DP  RH WIND       PRES   REMARKS
ALPENA         LGT RAIN  68  67  96 S7        29.79F FOG
BEAVER ISLAND  CLOUDY    60  60 100 CALM      29.78F
BELLAIRE       CLOUDY    68  66  93 CALM      29.80S
CADILLAC       RAIN      68  68 100 W7        29.83F
CHARLEVOIX     LGT RAIN  66  65  99 W5        29.84R VSB 1/2
FRANKFORT      CLOUDY    63  60  91 SE3       29.79F FOG
GAYLORD        LGT RAIN  65  64  97 SW5       29.83F
GRAYLING       CLOUDY    68  68 100 W3        29.82F
HARBOR SPRINGS LGT RAIN  64  64  99 CALM      29.79F VSB 3/4
HOUGHTON LAKE  CLOUDY    70  69  97 SW8       29.83S FOG
MANISTEE       CLOUDY    64  61  88 W5        29.83F
OSCODA         CLOUDY    71  69  93 SW6       29.80F
PELLSTON       LGT RAIN  67  66  97 CALM      29.79F FOG
ROGERS CITY    LGT RAIN  68  68 100 CALM      29.80F
TRAVERSE CITY  CLOUDY    69  66  90 SW5       29.80S
$$
MIZ007>008-015-130600-
EASTERN UPPER MICHIGAN

CITY           SKY/WX    TMP DP  RH WIND       PRES   REMARKS
KINROSS        CLOUDY    66  64  94 SE6       29.78F
MACKINAC ISLAN CLOUDY    65  65  99 CALM      29.79F FOG
NEWBERRY       CLOUDY    60  59  95 S5        29.78F
S. S. MARIE    CLOUDY    66  61  84 SE7       29.77F
$$
MIZ004>006-011>014-085-130600-
CENTRAL UPPER MICHIGAN

CITY           SKY/WX    TMP DP  RH WIND       PRES   REMARKS
MANISTIQUE     CLOUDY    57  57  98 CALM      29.77F FOG
ESCANABA       CLOUDY    63  57  82 W6        29.79F
MENOMINEE      MOCLDY    63  59  88 CALM      29.81R
SAWYER-GWINN   PTCLDY    64  61  91 W7        29.80F
$$
MIZ001>003-009>011-084-130600-
WESTERN UPPER MICHIGAN

CITY           SKY/WX    TMP DP  RH WIND       PRES   REMARKS
IRON MOUNTAIN  PTCLDY    63  60  90 W10       29.82F
HOUGHTON       PTCLDY    57  52  83 W5        29.79F
COPPER HARBOR    N/A     62  54  74 CALM      29.76F
IRONWOOD       CLEAR     64  59  82 SW10      29.82F
$$

ABBREVIATIONS USED IN REMARKS
   TC - TEMPERATURE IN CELSIUS
  WCI - WIND CHILL INDEX
   HX - HEAT INDEX
  VSB - VISIBILITY



USA.gov is the U.S. government's official web portal to all federal, state and local government web resources and services.